Starlink 32386

operational
NORAD ID: 61213 Int'l Des: 2024-171 Owner: SPXS Country: US Constellation: starlink
LEOCIRCULAR

关于 Starlink 32386

正在加载描述...

实时位置

正在加载3D地球...

即将过境

高度历史

Altitude vs Time

uPlot chart will show altitude changes over time

两行轨道根数

1 61213U 24171P 25258.58252030 .00000377 00000-0 24843-4 0 9997
2 61213 53.1607 55.4516 0001016 71.3047 288.8064 15.30200147 55563
Epoch: Sep 15, 2025 • Age: 11 hours

当前状态

高度 475.0 km
速度 7.63 km/s
星下点 16.68°N, 55.3°E
发射日期 Sep 20, 2024
运行时间 0.9 years
类型 internet

技术详情

分类 Payload
质量 730.00 kg
干质量 700.00 kg
总质量 730.00 kg
长度 0.30 m
直径 4.10 m
跨度 29.00 m
形状 Box + pan
制造商 SPXS
平台类型 Starlink V2M
阶段状态 In Orbit
所有者/国家 SPXS/US

大型星座

Loading constellations...